KD7QQY Weather Reports


time (UTC)temp
F
wind
direction
speed
knots
gust
knots
rain 1hr
in
rain 24hr
in
rain mn
in
humidity
%
barometer
mb
20260505005023 55 240 1.7 4.3 0.00 0.00 0.00 91 1010.5
20260505004546 55 221 2.6 5.2 0.00 0.00 0.00 91 1010.6
20260505004025 55 237 1.7 7.0 0.00 0.00 0.00 91 1010.6
20260505003523 55 221 2.6 7.0 0.00 0.00 0.00 91 1010.6
20260505003054 56 237 2.6 6.1 0.00 0.00 0.00 91 1010.6
20260505002523 56 237 1.7 3.5 0.00 0.00 0.00 90 1010.6
20260505002023 56 238 1.7 3.5 0.00 0.00 0.00 90 1010.6
20260505001542 56 238 1.7 4.3 0.00 0.00 0.00 89 1010.6
20260505001024 56 239 1.7 4.3 0.00 0.00 0.00 89 1010.6
20260505000523 57 233 0.0 3.5 0.00 0.00 0.00 88 1010.6
20260505000051 57 239 0.9 3.5 0.00 0.00 0.00 88 1010.6
20260504235523 57 0 0.0 2.6 0.00 0.00 0.00 88 1010.7
20260504235023 58 0 0.0 4.3 0.00 0.00 0.00 88 1010.7
20260504234538 58 78 0.9 4.3 0.00 0.00 0.00 88 1010.7
20260504234022 58 243 0.9 2.6 0.00 0.00 0.00 87 1010.7
20260504233522 58 236 0.0 3.5 0.00 0.00 0.00 87 1010.7
20260504233045 58 240 0.9 3.5 0.00 0.00 0.00 87 1010.8
20260504232525 58 239 0.9 3.5 0.00 0.00 0.00 87 1010.9
20260504232022 58 157 0.0 3.5 0.00 0.00 0.00 87 1010.8
20260504231542 58 164 0.0 2.6 0.00 0.00 0.00 87 1010.8
20260504231023 58 136 0.9 3.5 0.00 0.00 0.00 87 1010.9
20260504230524 58 209 0.9 3.5 0.00 0.00 0.00 87 1010.8
20260504230041 58 94 0.9 3.5 0.00 0.00 0.00 87 1010.9
20260504225523 58 221 0.0 2.6 0.00 0.00 0.00 87 1010.9
20260504225023 58 221 0.9 4.3 0.00 0.00 0.00 87 1011.0
20260504224539 58 0 0.0 4.3 0.00 0.00 0.00 86 1011.0
20260504224023 59 147 0.9 3.5 0.00 0.00 0.00 86 1010.9
20260504223523 59 163 0.9 3.5 0.00 0.00 0.00 87 1010.9
20260504223054 59 0 0.9 3.5 0.00 0.00 0.00 86 1010.9
20260504222522 59 223 0.9 5.2 0.00 0.00 0.00 87 1011.0
20260504222023 59 240 0.0 5.2 0.00 0.00 0.00 87 1011.0
20260504221535 59 128 0.9 5.2 0.00 0.00 0.00 87 1011.1
20260504221022 59 254 0.0 3.5 0.00 0.00 0.00 87 1011.1
20260504220522 59 360 0.9 3.5 0.00 0.00 0.00 87 1011.0
20260504220043 59 0 0.0 4.3 0.00 0.00 0.00 87 1011.1
20260504215523 58 115 0.9 4.3 0.00 0.00 0.00 86 1011.1
20260504215026 59 186 0.9 3.5 0.00 0.00 0.00 86 1011.1
20260504214541 59 262 0.9 6.1 0.00 0.00 0.00 87 1011.2
20260504214025 59 143 0.9 6.1 0.00 0.00 0.00 86 1011.2
20260504213523 59 0 0.9 5.2 0.00 0.00 0.00 87 1011.1
20260504213040 59 155 0.9 5.2 0.00 0.00 0.00 87 1011.1
20260504212523 58 59 0.9 4.3 0.00 0.00 0.00 87 1011.0
20260504212024 58 123 1.7 4.3 0.00 0.00 0.00 87 1011.0
20260504211604 58 279 0.9 5.2 0.00 0.00 0.00 87 1011.1
20260504211023 58 154 0.0 5.2 0.00 0.00 0.00 87 1011.1
20260504210523 58 0 0.9 5.2 0.00 0.00 0.00 87 1011.1
20260504210043 58 162 0.9 5.2 0.00 0.00 0.00 87 1011.1
20260504205523 58 92 0.9 5.2 0.00 0.00 0.00 87 1011.1
20260504205023 58 177 0.9 7.8 0.00 0.00 0.00 88 1011.2
20260504204543 58 0 0.0 7.8 0.00 0.00 0.00 88 1011.2
20260504204023 58 95 0.9 5.2 0.00 0.00 0.00 88 1011.1
20260504203522 58 162 1.7 5.2 0.00 0.00 0.00 88 1011.0
20260504203043 58 0 0.9 5.2 0.00 0.00 0.00 88 1011.1
20260504202522 58 311 0.9 5.2 0.00 0.00 0.00 88 1011.1
20260504202023 57 0 0.9 5.2 0.00 0.00 0.00 88 1011.0
20260504201540 57 63 1.7 5.2 0.00 0.00 0.00 88 1011.1
20260504201026 58 0 0.9 5.2 0.00 0.00 0.00 88 1011.1
20260504200523 58 149 0.9 4.3 0.00 0.00 0.00 89 1011.1
20260504200039 57 319 0.9 5.2 0.00 0.00 0.00 88 1011.1
20260504195522 57 131 0.9 5.2 0.00 0.00 0.00 89 1011.1
20260504195023 58 144 0.9 5.2 0.00 0.00 0.00 89 1011.1
20260504194547 57 81 0.9 5.2 0.00 0.00 0.00 89 1011.0
20260504194023 57 146 0.9 5.2 0.00 0.00 0.00 89 1011.1
20260504193522 57 0 0.9 5.2 0.00 0.00 0.00 89 1011.1
20260504193037 57 241 0.9 5.2 0.00 0.00 0.00 90 1011.0
20260504192524 57 107 0.9 7.0 0.00 0.00 0.00 90 1011.1
20260504192022 56 95 2.6 7.0 0.00 0.00 0.00 90 1011.1
20260504191601 57 298 2.6 7.8 0.00 0.00 0.00 90 1011.0
20260504191022 57 149 1.7 7.8 0.00 0.00 0.00 90 1011.2
20260504190523 57 200 1.7 7.0 0.00 0.00 0.00 90 1011.1
20260504190045 57 172 0.9 6.1 0.00 0.00 0.00 90 1011.1
20260504185522 57 346 0.9 6.1 0.00 0.00 0.00 90 1011.1
20260504185023 57 227 0.9 3.5 0.00 0.00 0.00 91 1011.1
20260504184547 57 71 0.0 8.7 0.00 0.00 0.00 91 1011.0
20260504184024 56 131 1.7 8.7 0.00 0.00 0.00 91 1011.0
20260504183524 56 106 0.9 5.2 0.00 0.00 0.00 91 1011.0
20260504183038 56 206 0.9 5.2 0.00 0.00 0.00 91 1010.9
20260504182524 57 235 0.9 5.2 0.00 0.00 0.00 92 1011.0
20260504182024 57 180 0.9 5.2 0.00 0.00 0.00 92 1011.0
20260504181542 57 260 0.9 6.1 0.00 0.00 0.00 92 1010.9
20260504181024 56 114 0.9 6.1 0.00 0.00 0.00 92 1011.0
20260504180524 56 169 1.7 6.1 0.00 0.00 0.00 93 1010.8
20260504180041 56 355 0.9 6.1 0.00 0.00 0.00 93 1010.9
20260504175524 56 179 0.9 6.1 0.00 0.00 0.00 93 1010.9
20260504175029 56 39 1.7 6.1 0.00 0.00 0.00 93 1010.7
20260504174544 56 252 0.9 4.3 0.00 0.00 0.00 93 1010.8
20260504174024 56 142 0.9 5.2 0.00 0.00 0.00 94 1010.8
20260504173524 56 0 0.9 5.2 0.00 0.00 0.00 93 1010.8
20260504173042 56 197 0.0 5.2 0.00 0.00 0.00 94 1010.8
20260504172524 55 217 0.0 5.2 0.00 0.00 0.00 94 1010.7
20260504172025 55 122 0.0 5.2 0.00 0.00 0.00 94 1010.7
20260504171547 55 132 0.9 5.2 0.00 0.00 0.00 94 1010.6
20260504171025 55 185 1.7 5.2 0.00 0.00 0.00 94 1010.6
20260504170524 55 92 0.0 5.2 0.00 0.00 0.00 95 1010.6
20260504151027 53 194 0.9 7.0 0.00 0.00 0.00 96 1009.9
20260504150526 53 92 0.9 3.5 0.00 0.00 0.00 96 1009.8
20260504141024 53 80 0.9 7.8 0.00 0.00 0.00 96 1009.4
20260504140525 53 233 0.9 7.8 0.00 0.00 0.00 96 1009.3
20260504130524 52 157 0.0 6.1 0.00 0.00 0.00 96 1008.7
20260504110524 52 74 0.9 5.2 0.00 0.00 0.00 95 1008.0
20260504100524 51 0 0.0 5.2 0.00 0.00 0.00 94 1007.4
20260504081535 51 0 0.0 1.7 0.00 0.00 0.00 92 1006.4
20260504081026 51 0 0.0 1.7 0.00 0.00 0.00 92 1006.5
20260504080524 51 239 0.0 2.6 0.00 0.00 0.00 92 1006.4
20260504050523 54 300 0.9 2.6 0.00 0.00 0.00 87 1006.7
20260504045524 55 300 0.9 2.6 0.00 0.00 0.00 87 1006.7
20260504045024 55 300 0.9 2.6 0.00 0.00 0.00 87 1006.7
20260504044539 55 300 0.9 2.6 0.00 0.00 0.00 87 1006.7
20260504044023 55 0 0.9 2.6 0.00 0.00 0.00 86 1006.6
20260504043524 55 300 0.9 2.6 0.00 0.00 0.00 86 1006.6
20260504043041 55 0 0.0 1.7 0.00 0.00 0.00 86 1006.5
20260504042524 55 0 0.0 2.6 0.00 0.00 0.00 86 1006.7
20260504042024 55 0 0.0 2.6 0.00 0.00 0.00 85 1006.5
20260504041536 55 0 0.0 2.6 0.00 0.00 0.00 85 1006.4
20260504041023 56 300 0.0 2.6 0.00 0.00 0.00 84 1006.6
20260504040525 56 0 0.0 2.6 0.00 0.00 0.00 84 1006.6
20260504040047 56 321 0.0 3.5 0.00 0.00 0.00 83 1006.5
20260504035523 56 0 0.9 4.3 0.00 0.03 0.00 83 1006.5
20260504035024 56 285 0.0 5.2 0.00 0.03 0.00 82 1006.5
20260504034541 57 277 0.9 5.2 0.00 0.03 0.00 81 1006.4
20260504034027 57 295 1.7 5.2 0.00 0.03 0.00 81 1006.5
20260504033523 58 300 1.7 6.1 0.00 0.03 0.00 80 1006.5
20260504033042 59 304 1.7 6.1 0.00 0.03 0.00 80 1006.5
20260504032524 59 0 0.9 5.2 0.00 0.03 0.00 79 1006.4
20260504032023 60 279 1.7 7.0 0.00 0.03 0.00 79 1006.4
20260504031552 60 305 1.7 7.0 0.00 0.03 0.00 78 1006.4
20260504031023 60 294 1.7 8.7 0.00 0.03 0.00 77 1006.4
20260504030523 60 269 2.6 8.7 0.00 0.03 0.00 77 1006.4
20260504030042 60 278 2.6 7.8 0.00 0.03 0.00 77 1006.3
20260504025524 60 294 2.6 7.8 0.00 0.03 0.00 77 1006.4
20260504025024 61 290 3.5 7.8 0.00 0.03 0.00 77 1006.4
20260504024537 61 306 2.6 7.0 0.00 0.03 0.00 76 1006.4
20260504024023 61 271 3.5 7.8 0.00 0.03 0.00 77 1006.3
20260504023523 61 307 3.5 9.6 0.00 0.03 0.00 77 1006.5
20260504023043 61 304 4.3 9.6 0.00 0.03 0.00 77 1006.4
20260504022526 61 340 2.6 7.8 0.00 0.03 0.00 77 1006.4
20260504022024 61 301 2.6 8.7 0.00 0.03 0.00 78 1006.5
20260504021607 61 290 3.5 9.6 0.00 0.03 0.00 77 1006.6
20260504021023 61 340 4.3 9.6 0.00 0.03 0.00 77 1006.6
20260504020523 61 305 4.3 11.3 0.00 0.03 0.00 77 1006.6
20260504020039 61 294 4.3 11.3 0.00 0.03 0.00 76 1006.6
20260504015523 61 325 5.2 11.3 0.00 0.03 0.00 76 1006.7
20260504015025 61 327 6.1 11.3 0.00 0.03 0.00 74 1006.7
20260504014542 62 294 4.3 10.4 0.00 0.03 0.00 74 1006.8
20260504014022 62 331 4.3 11.3 0.00 0.03 0.00 73 1006.9
20260504013522 62 294 5.2 11.3 0.00 0.03 0.00 72 1006.9
20260504013042 62 296 6.1 11.3 0.00 0.03 0.00 72 1006.9
20260504012523 62 336 5.2 10.4 0.00 0.03 0.00 72 1006.9
20260504012024 62 294 3.5 11.3 0.00 0.03 0.00 72 1007.0
20260504011540 62 284 6.1 11.3 0.00 0.03 0.00 71 1007.0
20260504011023 62 355 4.3 11.3 0.00 0.03 0.00 71 1007.1
20260504010523 62 292 6.1 11.3 0.00 0.03 0.00 69 1007.1
20260504010035 63 309 5.2 9.6 0.00 0.03 0.00 69 1007.2
20260504005523 63 279 3.5 10.4 0.00 0.03 0.00 70 1007.3